Date,Installs,Update checks
2017-03-16,6,2
2017-03-17,9,15
2017-03-18,13,14
2017-03-19,8,32
2017-03-20,5,27
2017-03-21,8,34
2017-03-22,9,38
2017-03-23,4,48
2017-03-24,3,34
2017-03-25,2,47
2017-03-26,7,22
2017-03-27,10,14
2017-03-28,8,7
2017-03-29,8,11
2017-03-30,8,7
2017-03-31,10,9
2017-04-01,8,8
2017-04-02,1,7
2017-04-03,8,9
2017-04-04,4,14
2017-04-05,3,8
2017-04-06,8,9
2017-04-07,9,8
2017-04-08,8,10
2017-04-09,7,11
2017-04-10,9,12
2017-04-11,8,13
2017-04-12,16,14
2017-04-13,4,8
2017-04-14,5,15
2017-04-15,5,11
2017-04-16,3,10
2017-04-17,4,10
2017-04-18,3,7
2017-04-19,7,15
2017-04-20,7,7
2017-04-21,3,12
2017-04-22,2,0
2017-04-23,5,15
2017-04-24,5,12
2017-04-25,4,11
2017-04-26,3,14
2017-04-27,4,15
2017-04-28,0,9
2017-04-29,1,14
2017-04-30,2,12
2017-05-01,4,15
2017-05-02,7,13
2017-05-03,2,12
2017-05-04,4,13
2017-05-05,3,14
2017-05-06,3,17
2017-05-07,3,10
2017-05-08,4,16
2017-05-09,5,12
2017-05-10,1,16
2017-05-11,2,15
2017-05-12,2,13
2017-05-13,3,13
2017-05-14,3,13
2017-05-15,6,17
2017-05-16,2,12
2017-05-17,7,19
2017-05-18,6,12
2017-05-19,3,21
2017-05-20,3,11
2017-05-21,3,16
2017-05-22,4,15
2017-05-23,2,12
2017-05-24,1,18
2017-05-25,3,15
2017-05-26,5,13
2017-05-27,7,17
2017-05-28,4,16
2017-05-29,9,20
2017-05-30,8,16
2017-05-31,10,23
2017-06-01,3,20
2017-06-02,1,18
2017-06-03,0,23
2017-06-04,1,15
2017-06-05,0,23
2017-06-06,2,18
2017-06-07,4,23
2017-06-08,4,14
2017-06-09,2,23
2017-06-10,7,13
2017-06-11,6,19
2017-06-12,3,17
2017-06-13,5,21
2017-06-14,3,17
2017-06-15,2,23
2017-06-16,4,13
2017-06-17,2,24
2017-06-18,4,17
2017-06-19,2,24
2017-06-20,3,13
2017-06-21,2,18
2017-06-22,5,19
2017-06-23,0,19
2017-06-24,2,17
2017-06-25,6,15
2017-06-26,4,21
2017-06-27,1,18
2017-06-28,1,17
2017-06-29,2,19
2017-06-30,2,22
2017-07-01,0,16
2017-07-02,1,26
2017-07-03,1,15
2017-07-04,3,24
2017-07-05,5,16
2017-07-06,6,22
2017-07-07,6,18
2017-07-08,4,23
2017-07-09,3,18
2017-07-10,2,27
2017-07-11,4,17
2017-07-12,4,25
2017-07-13,7,22
2017-07-14,10,20
2017-07-15,6,17
2017-07-16,7,20
2017-07-17,4,20
2017-07-18,3,17
2017-07-19,6,20
2017-07-20,1,16
2017-07-21,0,21
2017-07-22,4,15
2017-07-23,3,14
2017-07-24,1,20
2017-07-25,5,13
2017-07-26,4,16
2017-07-27,8,15
2017-07-28,4,15
2017-07-29,7,16
2017-07-30,4,14
2017-07-31,6,16
2017-08-01,6,14
2017-08-02,1,15
2017-08-03,2,18
2017-08-04,5,15
2017-08-05,1,13
2017-08-06,1,15
2017-08-07,3,22
2017-08-08,5,13
2017-08-09,2,16
2017-08-10,2,17
2017-08-11,1,15
2017-08-12,3,20
2017-08-13,4,19
2017-08-14,5,17
2017-08-15,1,21
2017-08-16,2,21
2017-08-17,0,14
2017-08-18,0,14
2017-08-19,4,16
2017-08-20,2,18
2017-08-21,4,17
2017-08-22,6,9
2017-08-23,3,14
2017-08-24,2,16
2017-08-25,0,19
2017-08-26,3,16
2017-08-27,2,14
2017-08-28,3,21
2017-08-29,2,14
2017-08-30,6,18
2017-08-31,7,21
2017-09-01,3,13
2017-09-02,3,14
2017-09-03,3,14
2017-09-04,3,21
2017-09-05,4,18
2017-09-06,1,16
2017-09-07,3,17
2017-09-08,2,12
2017-09-09,5,15
2017-09-10,3,12
2017-09-11,3,21
2017-09-12,3,19
2017-09-13,4,12
2017-09-14,4,22
2017-09-15,6,15
2017-09-16,4,17
2017-09-17,6,19
2017-09-18,3,19
2017-09-19,1,19
2017-09-20,6,21
2017-09-21,9,18
2017-09-22,8,16
2017-09-23,7,20
2017-09-24,6,16
2017-09-25,4,21
2017-09-26,8,20
2017-09-27,9,18
2017-09-28,7,17
2017-09-29,7,18
2017-09-30,8,14
2017-10-01,8,19
2017-10-02,3,14
2017-10-03,2,20
2017-10-04,6,17
2017-10-05,1,20
2017-10-06,6,14
2017-10-07,5,17
2017-10-08,5,13
2017-10-09,5,22
2017-10-10,4,14
2017-10-11,8,16
2017-10-12,10,14
2017-10-13,6,13
2017-10-14,4,16
2017-10-15,17,21
2017-10-16,7,24
2017-10-17,15,20
2017-10-18,6,17
2017-10-19,6,24
2017-10-20,10,16
2017-10-21,2,22
2017-10-22,4,19
2017-10-23,7,26
2017-10-24,1,18
2017-10-25,3,22
2017-10-26,4,19
2017-10-27,8,23
2017-10-28,7,17
2017-10-29,10,19
2017-10-30,4,22
2017-10-31,6,22
2017-11-01,9,15
2017-11-02,5,27
2017-11-03,6,20
2017-11-04,4,22
2017-11-05,2,23
2017-11-06,4,15
2017-11-07,4,27
2017-11-08,8,23
2017-11-09,5,23
2017-11-10,2,26
2017-11-11,8,21
2017-11-12,7,20
2017-11-13,5,25
2017-11-14,10,22
2017-11-15,20,24
2017-11-16,13,19
2017-11-17,17,12
2017-11-18,20,17
2017-11-19,17,18
2017-11-20,17,15
2017-11-21,17,17
2017-11-22,13,17
2017-11-23,25,17
2017-11-24,23,22
2017-11-25,24,12
2017-11-26,12,25
2017-11-27,12,26
2017-11-28,12,22
2017-11-29,12,32
2017-11-30,9,31
2017-12-01,16,32
2017-12-02,9,20
2017-12-03,7,31
2017-12-04,7,42
2017-12-05,5,31
2017-12-06,6,37
2017-12-07,9,30
2017-12-08,10,34
2017-12-09,9,36
2017-12-10,10,45
2017-12-11,7,39
2017-12-12,8,41
2017-12-13,19,45
2017-12-14,14,52
2017-12-15,11,48
2017-12-16,15,44
2017-12-17,9,54
2017-12-18,9,52
2017-12-19,9,58
2017-12-20,8,55
2017-12-21,7,62
2017-12-22,14,56
2017-12-23,7,56
2017-12-24,14,51
2017-12-25,3,62
2017-12-26,4,52
2017-12-27,10,63
2017-12-28,5,51
2017-12-29,8,58
2017-12-30,9,59
2017-12-31,5,50
2018-01-01,8,53
2018-01-02,8,61
2018-01-03,13,66
2018-01-04,7,70
2018-01-05,8,67
2018-01-06,10,66
2018-01-07,6,75
2018-01-08,9,76
2018-01-09,14,71
2018-01-10,7,80
2018-01-11,9,73
2018-01-12,6,85
2018-01-13,13,76
2018-01-14,12,71
2018-01-15,9,79
2018-01-16,11,74
2018-01-17,8,83
2018-01-18,9,83
2018-01-19,7,86
2018-01-20,6,83
2018-01-21,9,79
2018-01-22,6,88
2018-01-23,11,86
2018-01-24,11,80
2018-01-25,7,96
2018-01-26,3,96
2018-01-27,4,87
2018-01-28,10,93
2018-01-29,3,94
2018-01-30,5,89
2018-01-31,6,107
2018-02-01,6,74
2018-02-02,7,96
2018-02-03,2,89
2018-02-04,5,101
2018-02-05,9,105
2018-02-06,6,101
2018-02-07,6,91
2018-02-08,7,95
2018-02-09,4,102
2018-02-10,5,94
2018-02-11,0,68
2018-02-12,10,60
2018-02-13,7,50
2018-02-14,15,54
2018-02-15,8,55
2018-02-16,3,50
2018-02-17,8,45
2018-02-18,7,47
2018-02-19,5,55
2018-02-20,7,51
2018-02-21,6,53
2018-02-22,4,49
2018-02-23,5,49
2018-02-24,4,51
2018-02-25,7,33
2018-02-26,6,41
2018-02-27,6,39
2018-02-28,8,42
2018-03-01,6,34
2018-03-02,9,37
2018-03-03,4,33
2018-03-04,4,34
2018-03-05,8,40
2018-03-06,8,44
2018-03-07,10,31
2018-03-08,5,41
2018-03-09,3,38
2018-03-10,13,34
2018-03-11,6,36
2018-03-12,6,39
2018-03-13,8,34
2018-03-14,7,40
2018-03-15,7,37
2018-03-16,4,36
2018-03-17,1,32
2018-03-18,7,43
2018-03-19,3,44
2018-03-20,9,35
2018-03-21,2,36
2018-03-22,4,30
2018-03-23,3,24
2018-03-24,6,30
2018-03-25,7,29
2018-03-26,6,29
2018-03-27,12,34
2018-03-28,10,32
2018-03-29,10,35
2018-03-30,12,32
2018-03-31,5,26
2018-04-01,4,32
2018-04-02,5,34
2018-04-03,3,35
2018-04-04,7,44
2018-04-05,8,40
2018-04-06,4,31
2018-04-07,5,25
2018-04-08,12,30
2018-04-09,3,31
2018-04-10,8,44
2018-04-11,5,27
2018-04-12,6,35
2018-04-13,5,41
2018-04-14,6,29
2018-04-15,4,38
2018-04-16,2,38
2018-04-17,1,30
2018-04-18,4,31
2018-04-19,6,37
2018-04-20,4,33
2018-04-21,4,31
2018-04-22,3,28
2018-04-23,5,34
2018-04-24,1,30
2018-04-25,4,22
2018-04-26,3,32
2018-04-27,4,20
2018-04-28,6,31
2018-04-29,5,38
2018-04-30,3,32
2018-05-01,1,35
2018-05-02,3,29
2018-05-03,6,41
2018-05-04,4,38
2018-05-05,4,35
2018-05-06,3,32
2018-05-07,4,44
2018-05-08,9,29
2018-05-09,2,36
2018-05-10,7,40
2018-05-11,8,28
2018-05-12,4,33
2018-05-13,3,30
2018-05-14,7,45
2018-05-15,8,33
2018-05-16,4,45
2018-05-17,10,41
2018-05-18,8,43
2018-05-19,3,26
2018-05-20,9,39
2018-05-21,3,39
2018-05-22,6,40
2018-05-23,5,46
2018-05-24,6,42
2018-05-25,7,41
2018-05-26,2,40
2018-05-27,2,39
2018-05-28,4,44
2018-05-29,1,44
2018-05-30,6,38
2018-05-31,1,48
2018-06-01,3,40
2018-06-02,4,30
2018-06-03,5,33
2018-06-04,7,44
2018-06-05,3,38
2018-06-06,4,42
2018-06-07,3,29
2018-06-08,4,35
2018-06-09,4,39
2018-06-10,8,35
2018-06-11,5,36
2018-06-12,5,47
2018-06-13,5,42
2018-06-14,5,36
2018-06-15,6,47
2018-06-16,5,36
2018-06-17,3,42
2018-06-18,7,41
2018-06-19,5,47
2018-06-20,6,44
2018-06-21,2,47
2018-06-22,3,49
2018-06-23,8,33
2018-06-24,4,32
2018-06-25,3,45
2018-06-26,5,48
2018-06-27,1,43
2018-06-28,2,47
2018-06-29,3,45
2018-06-30,2,37
2018-07-01,3,46
2018-07-02,6,47
2018-07-03,2,44
2018-07-04,1,41
2018-07-05,2,46
2018-07-06,1,36
2018-07-07,1,33
2018-07-08,1,40
2018-07-09,2,40
2018-07-10,3,43
2018-07-11,2,45
2018-07-12,5,39
2018-07-13,7,34
2018-07-14,5,43
2018-07-15,2,48
2018-07-16,5,53
2018-07-17,4,47
2018-07-18,5,49
2018-07-19,4,48
2018-07-20,2,50
2018-07-21,4,45
2018-07-22,3,44
2018-07-23,2,45
2018-07-24,4,50
2018-07-25,3,63
2018-07-26,5,46
2018-07-27,4,45
2018-07-28,3,45
2018-07-29,1,46
2018-07-30,2,61
2018-07-31,0,59
2018-08-01,1,53
2018-08-02,1,55
2018-08-03,3,50
2018-08-04,0,36
2018-08-05,2,45
2018-08-06,3,54
2018-08-07,1,54
2018-08-08,0,43
2018-08-09,2,52
2018-08-10,2,30
2018-08-11,2,44
2018-08-12,2,39
2018-08-13,3,46
2018-08-14,1,46
2018-08-15,1,45
2018-08-16,1,38
2018-08-17,2,47
2018-08-18,4,52
2018-08-19,2,55
2018-08-20,4,52
2018-08-21,4,56
2018-08-22,3,50
2018-08-23,4,63
2018-08-24,5,52
2018-08-25,4,51
2018-08-26,6,47
2018-08-27,5,60
2018-08-28,5,58
2018-08-29,7,72
2018-08-30,2,56
2018-08-31,2,54
2018-09-01,0,53
2018-09-02,1,51
2018-09-03,1,55
2018-09-04,1,57
2018-09-05,3,58
2018-09-06,0,60
2018-09-07,2,62
2018-09-08,2,46
2018-09-09,5,57
2018-09-10,5,63
2018-09-11,6,55
2018-09-12,9,65
2018-09-13,6,65
2018-09-14,2,71
2018-09-15,3,63
2018-09-16,3,59
2018-09-17,0,65
2018-09-18,1,63
2018-09-19,1,65
2018-09-20,2,70
2018-09-21,2,62
2018-09-22,3,57
2018-09-23,1,69
2018-09-24,3,61
2018-09-25,1,74
2018-09-26,1,61
2018-09-27,1,69
2018-09-28,2,51
2018-09-29,3,61
2018-09-30,4,71
2018-10-01,6,63
2018-10-02,2,75
2018-10-03,5,61
2018-10-04,3,63
2018-10-05,4,67
2018-10-06,7,65
2018-10-07,3,68
2018-10-08,3,70
2018-10-09,5,63
2018-10-10,4,65
2018-10-11,3,54
2018-10-12,7,58
2018-10-13,11,70
2018-10-14,2,61
2018-10-15,3,69
2018-10-16,0,72
2018-10-17,3,70
2018-10-18,4,72
2018-10-19,4,71
2018-10-20,2,75
2018-10-21,2,66
2018-10-22,4,76
2018-10-23,6,77
2018-10-24,8,75
2018-10-25,11,81
2018-10-26,9,77
2018-10-27,4,69
2018-10-28,5,81
2018-10-29,14,75
2018-10-30,10,75
2018-10-31,9,71
2018-11-01,19,73
2018-11-02,34,95
2018-11-03,34,79
2018-11-04,34,82
2018-11-05,31,101
2018-11-06,35,104
2018-11-07,36,113
2018-11-08,11,100
2018-11-09,8,104
2018-11-10,3,81
2018-11-11,4,91
2018-11-12,3,105
2018-11-13,8,89
2018-11-14,9,89
2018-11-15,3,102
2018-11-16,3,91
2018-11-17,2,85
2018-11-18,4,101
2018-11-19,1,93
2018-11-20,1,101
2018-11-21,4,92
2018-11-22,4,90
2018-11-23,4,93
2018-11-24,2,78
2018-11-25,3,97
2018-11-26,7,95
2018-11-27,5,93
2018-11-28,3,91
2018-11-29,2,101
2018-11-30,3,103
2018-12-01,2,83
2018-12-02,0,83
2018-12-03,2,97
2018-12-04,4,93
2018-12-05,2,101
2018-12-06,1,105
2018-12-07,2,91
2018-12-08,1,83
2018-12-09,1,89
2018-12-10,1,89
2018-12-11,0,95
2018-12-12,3,100
2018-12-13,2,102
2018-12-14,2,91
2018-12-15,4,81
2018-12-16,2,98
2018-12-17,1,91
2018-12-18,3,85
2018-12-19,1,94
2018-12-20,3,103
2018-12-21,3,99
2018-12-22,4,73
2018-12-23,7,89
2018-12-24,8,85
2018-12-25,3,77
2018-12-26,4,98
2018-12-27,5,91
2018-12-28,6,92
2018-12-29,6,90
2018-12-30,6,83
2018-12-31,1,84
2019-01-01,0,101
2019-01-02,0,96
2019-01-03,0,103
2019-01-04,3,90
2019-01-05,6,84
2019-01-06,4,103
2019-01-07,6,97
2019-01-08,4,101
2019-01-09,4,106
2019-01-10,4,110
2019-01-11,6,94
2019-01-12,7,89
2019-01-13,6,103
2019-01-14,6,111
2019-01-15,4,99
2019-01-16,4,103
2019-01-17,7,112
2019-01-18,12,104
2019-01-19,5,92
2019-01-20,7,95
2019-01-21,6,100
2019-01-22,8,108
2019-01-23,12,120
2019-01-24,7,122
2019-01-25,9,104
2019-01-26,7,101
2019-01-27,5,98
2019-01-28,6,107
2019-01-29,5,114
2019-01-30,5,117
2019-01-31,5,108
2019-02-01,8,111
2019-02-02,6,108
2019-02-03,7,92
2019-02-04,10,114
2019-02-05,7,113
2019-02-06,5,112
2019-02-07,6,112
2019-02-08,6,109
2019-02-09,9,114
2019-02-10,4,107
2019-02-11,2,126
2019-02-12,3,123
2019-02-13,7,117
2019-02-14,9,124
2019-02-15,11,119
2019-02-16,8,114
2019-02-17,2,105
2019-02-18,4,128
2019-02-19,4,133
2019-02-20,3,122
2019-02-21,3,117
2019-02-22,2,123
2019-02-23,2,102
2019-02-24,7,105
2019-02-25,3,126
2019-02-26,4,128
2019-02-27,6,114
2019-02-28,7,128
2019-03-01,2,110
2019-03-02,3,111
2019-03-03,4,113
2019-03-04,2,135
2019-03-05,5,122
2019-03-06,7,112
2019-03-07,4,125
2019-03-08,5,113
2019-03-09,7,114
2019-03-10,3,121
2019-03-11,1,103
2019-03-12,0,126
2019-03-13,2,124
2019-03-14,3,122
2019-03-15,2,102
2019-03-16,2,102
2019-03-17,5,109
2019-03-18,2,128
2019-03-19,0,112
2019-03-20,2,120
2019-03-21,2,112
2019-03-22,2,120
2019-03-23,1,104
2019-03-24,1,107
2019-03-25,2,116
2019-03-26,1,116
2019-03-27,2,111
2019-03-28,5,120
2019-03-29,10,108
2019-03-30,2,117
2019-03-31,1,105
2019-04-01,2,126
2019-04-02,3,131
2019-04-03,4,118
2019-04-04,1,124
2019-04-05,1,126
2019-04-06,2,93
2019-04-07,0,113
2019-04-08,0,115
2019-04-09,1,123
2019-04-10,1,116
2019-04-11,0,113
2019-04-12,0,109
2019-04-13,1,97
2019-04-14,2,102
2019-04-15,1,121
2019-04-16,1,124
2019-04-17,1,111
2019-04-18,2,118
2019-04-19,3,96
2019-04-20,0,111
2019-04-21,0,107
2019-04-22,0,107
2019-04-23,2,118
2019-04-24,0,109
2019-04-25,2,112
2019-04-26,1,108
2019-04-27,2,103
2019-04-28,1,95
2019-04-29,1,108
2019-04-30,2,120
2019-05-01,3,107
2019-05-02,2,119
2019-05-03,1,111
2019-05-04,3,119
2019-05-05,8,126
2019-05-06,4,134
2019-05-07,0,119
2019-05-08,2,117
2019-05-09,6,110
2019-05-10,1,113
2019-05-11,1,102
2019-05-12,3,103
2019-05-13,3,125
2019-05-14,10,113
2019-05-15,3,121
2019-05-16,6,112
2019-05-17,4,108
2019-05-18,6,119
2019-05-19,5,103
2019-05-20,4,129
2019-05-21,9,121
2019-05-22,9,114
2019-05-23,7,124
2019-05-24,8,115
2019-05-25,7,99
2019-05-26,5,112
2019-05-27,5,119
2019-05-28,5,117
2019-05-29,12,121
2019-05-30,4,113
2019-05-31,3,105
2019-06-01,5,92
2019-06-02,2,102
2019-06-03,1,118
2019-06-04,3,111
2019-06-05,1,108
2019-06-06,1,108
2019-06-07,2,116
2019-06-08,1,87
2019-06-09,1,101
2019-06-10,4,116
2019-06-11,2,102
2019-06-12,4,109
2019-06-13,3,111
2019-06-14,4,114
2019-06-15,7,89
2019-06-16,6,89
2019-06-17,4,108
2019-06-18,3,105
2019-06-19,5,102
2019-06-20,6,105
2019-06-21,4,90
2019-06-22,7,96
2019-06-23,9,88
2019-06-24,5,106
2019-06-25,5,103
2019-06-26,4,118
2019-06-27,4,92
2019-06-28,2,107
2019-06-29,4,88
2019-06-30,5,107
2019-07-01,3,118
2019-07-02,4,96
2019-07-03,5,105
2019-07-04,11,110
2019-07-05,14,104
2019-07-06,8,87
2019-07-07,7,93
2019-07-08,7,118
2019-07-09,8,101
2019-07-10,11,111
2019-07-11,18,98
2019-07-12,20,100
2019-07-13,12,88
2019-07-14,11,101
2019-07-15,14,102
2019-07-16,11,114
2019-07-17,12,107
2019-07-18,10,114
2019-07-19,14,94
2019-07-20,14,91
2019-07-21,15,96
2019-07-22,12,125
2019-07-23,9,120
2019-07-24,6,107
2019-07-25,0,108
2019-07-26,3,101
2019-07-27,1,93
2019-07-28,1,93
2019-07-29,1,119
2019-07-30,1,112
2019-07-31,1,94
2019-08-01,0,109
2019-08-02,0,96
2019-08-03,0,88
2019-08-04,0,90
2019-08-05,1,108
2019-08-06,4,105
2019-08-07,1,107
2019-08-08,1,111
2019-08-09,3,80
2019-08-10,2,81
2019-08-11,2,76
2019-08-12,3,103
2019-08-13,1,96
2019-08-14,4,93
2019-08-15,1,89
2019-08-16,5,85
2019-08-17,1,84
2019-08-18,0,82
2019-08-19,2,103
2019-08-20,6,103
2019-08-21,1,102
2019-08-22,8,110
2019-08-23,9,98
2019-08-24,1,79
2019-08-25,1,96
2019-08-26,1,98
2019-08-27,1,96
2019-08-28,0,111
2019-08-29,0,108
2019-08-30,0,89
2019-08-31,0,91
2019-09-01,1,89
2019-09-02,0,98
2019-09-03,0,127
2019-09-04,1,104
2019-09-05,0,90
2019-09-06,0,96
2019-09-07,0,91
2019-09-08,1,88
2019-09-09,1,107
2019-09-10,1,100
2019-09-11,1,97
2019-09-12,3,103
2019-09-13,2,105
2019-09-14,3,89
2019-09-15,6,85
2019-09-16,7,112
2019-09-17,2,116
2019-09-18,5,120
2019-09-19,5,107
2019-09-20,5,108
2019-09-21,7,96
2019-09-22,6,92
2019-09-23,4,113
2019-09-24,1,100
2019-09-25,0,118
2019-09-26,2,111
2019-09-27,4,109
2019-09-28,2,100
2019-09-29,3,101
2019-09-30,4,115
2019-10-01,7,108
2019-10-02,2,106
2019-10-03,1,101
2019-10-04,0,107
2019-10-05,3,101
2019-10-06,3,84
2019-10-07,5,127
2019-10-08,3,92
2019-10-09,5,114
2019-10-10,3,113
2019-10-11,3,99
2019-10-12,2,99
2019-10-13,2,107
2019-10-14,1,122
2019-10-15,2,108
2019-10-16,1,102
2019-10-17,0,111
2019-10-18,2,101
2019-10-19,1,90
2019-10-20,1,99
2019-10-21,0,117
2019-10-22,1,103
2019-10-23,0,113
2019-10-24,1,119
2019-10-25,0,119
2019-10-26,0,77
2019-10-27,0,112
2019-10-28,1,103
2019-10-29,1,110
2019-10-30,0,112
2019-10-31,0,117
2019-11-01,1,101
2019-11-02,4,94
2019-11-03,4,89
2019-11-04,2,108
2019-11-05,1,103
2019-11-06,2,110
2019-11-07,3,101
2019-11-08,3,107
2019-11-09,1,83
2019-11-10,2,104
2019-11-11,4,113
2019-11-12,5,107
2019-11-13,3,104
2019-11-14,4,106
2019-11-15,4,108
2019-11-16,4,83
2019-11-17,2,90
2019-11-18,0,94
2019-11-19,1,99
2019-11-20,1,112
2019-11-21,4,106
2019-11-22,1,107
2019-11-23,2,84
2019-11-24,6,94
2019-11-25,2,108
2019-11-26,0,105
2019-11-27,0,86
2019-11-28,2,103
2019-11-29,2,103
2019-11-30,2,93
2019-12-01,1,92
2019-12-02,2,101
2019-12-03,4,98
2019-12-04,6,107
2019-12-05,2,102
2019-12-06,0,87
2019-12-07,2,90
2019-12-08,2,105
2019-12-09,0,114
2019-12-10,0,123
2019-12-11,0,106
2019-12-12,1,104
2019-12-13,0,116
2019-12-14,0,92
2019-12-15,2,91
2019-12-16,2,121
2019-12-17,3,115
2019-12-18,7,110
2019-12-19,1,111
2019-12-20,3,112
2019-12-21,0,96
2019-12-22,3,93
2019-12-23,1,121
2019-12-24,4,108
2019-12-25,1,103
2019-12-26,3,104
2019-12-27,4,106
2019-12-28,4,97
2019-12-29,6,101
2019-12-30,1,118
2019-12-31,2,86
2020-01-01,2,102
2020-01-02,3,114
2020-01-03,2,106
2020-01-04,2,105
2020-01-05,0,99
2020-01-06,1,107
2020-01-07,0,119
2020-01-08,0,117
2020-01-09,1,115
2020-01-10,4,118
2020-01-11,1,103
2020-01-12,0,112
2020-01-13,2,114
2020-01-14,2,118
2020-01-15,2,106
2020-01-16,2,112
2020-01-17,1,108
2020-01-18,2,104
2020-01-19,2,105
2020-01-20,2,108
2020-01-21,1,118
2020-01-22,11,105
2020-01-23,3,103
2020-01-24,4,103
2020-01-25,4,94
2020-01-26,4,98
2020-01-27,1,116
2020-01-28,2,107
2020-01-29,5,106
2020-01-30,1,117
2020-01-31,3,115
2020-02-01,3,98
2020-02-02,1,99
2020-02-03,0,116
2020-02-04,1,113
2020-02-05,1,112
2020-02-06,5,111
2020-02-07,1,113
2020-02-08,3,28
2020-02-09,4,64
2020-02-10,2,108
2020-02-11,3,98
2020-02-12,0,102
2020-02-13,5,102
2020-02-14,3,108
2020-02-15,6,93
2020-02-16,3,84
2020-02-17,2,116
2020-02-18,3,108
2020-02-19,2,111
2020-02-20,4,104
2020-02-21,2,107
2020-02-22,4,90
2020-02-23,3,94
2020-02-24,2,114
2020-02-25,1,107
2020-02-26,1,106
2020-02-27,1,112
2020-02-28,3,104
2020-02-29,3,96
2020-03-01,2,94
2020-03-02,4,115
2020-03-03,3,110
2020-03-04,2,109
2020-03-05,2,110
2020-03-06,2,98
2020-03-07,0,81
2020-03-08,1,107
2020-03-09,1,104
2020-03-10,1,97
2020-03-11,0,106
2020-03-12,1,98
2020-03-13,1,103
2020-03-14,2,108
2020-03-15,5,88
2020-03-16,4,101
2020-03-17,9,108
2020-03-18,5,108
2020-03-19,6,91
2020-03-20,4,102
2020-03-21,4,94
2020-03-22,4,90
2020-03-23,4,106
2020-03-24,4,105
2020-03-25,5,114
2020-03-26,4,106
2020-03-27,3,110
2020-03-28,6,107
2020-03-29,4,100
2020-03-30,3,114
2020-03-31,9,121
2020-04-01,5,118
2020-04-02,5,114
2020-04-03,6,119
2020-04-04,0,94
2020-04-05,2,114
2020-04-06,1,123
2020-04-07,1,115
2020-04-08,3,99
2020-04-09,0,104
2020-04-10,2,107
2020-04-11,0,96
2020-04-12,2,92
2020-04-13,4,104
2020-04-14,1,121
2020-04-15,0,123
2020-04-16,4,114
2020-04-17,3,123
2020-04-18,0,99
2020-04-19,0,97
2020-04-20,0,110
2020-04-21,2,115
2020-04-22,2,108
2020-04-23,3,107
2020-04-24,1,122
2020-04-25,1,110
2020-04-26,1,103
2020-04-27,5,117
2020-04-28,4,113
2020-04-29,2,118
2020-04-30,1,124
2020-05-01,1,113
2020-05-02,0,109
2020-05-03,2,112
2020-05-04,0,117
2020-05-05,1,113
2020-05-06,1,126
2020-05-07,2,120
2020-05-08,0,115
2020-05-09,2,105
2020-05-10,2,106
2020-05-11,1,125
2020-05-12,1,130
2020-05-13,2,115
2020-05-14,1,119
2020-05-15,0,111
2020-05-16,0,101
2020-05-17,2,105
2020-05-18,4,121
2020-05-19,1,118
2020-05-20,1,120
2020-05-21,2,116
2020-05-22,2,115
2020-05-23,3,102
2020-05-24,6,107
2020-05-25,3,119
2020-05-26,2,109
2020-05-27,0,120
2020-05-28,1,113
2020-05-29,0,119
2020-05-30,2,100
2020-05-31,1,112
2020-06-01,2,110
2020-06-02,4,126
2020-06-03,2,113
2020-06-04,4,122
2020-06-05,5,118
2020-06-06,3,95
2020-06-07,0,97
2020-06-08,1,106
2020-06-09,1,104
2020-06-10,0,110
2020-06-11,3,105
2020-06-12,2,104
2020-06-13,1,103
2020-06-14,1,94
2020-06-15,1,114
2020-06-16,2,112
2020-06-17,0,117
2020-06-18,1,113
2020-06-19,0,106
2020-06-20,1,104
2020-06-21,1,106
2020-06-22,1,105
2020-06-23,2,114
2020-06-24,4,99
2020-06-25,1,109
2020-06-26,2,108
2020-06-27,3,93
2020-06-28,2,106
2020-06-29,1,122
2020-06-30,2,112
2020-07-01,2,117
2020-07-02,5,109
2020-07-03,4,110
2020-07-04,4,101
2020-07-05,5,99
2020-07-06,7,130
2020-07-07,1,113
2020-07-08,5,116
2020-07-09,2,115
2020-07-10,2,113
2020-07-11,3,107
2020-07-12,2,95
2020-07-13,0,106
2020-07-14,1,119
2020-07-15,0,118
2020-07-16,0,107
2020-07-17,3,113
2020-07-18,1,90
2020-07-19,2,84
2020-07-20,3,118
2020-07-21,1,111
2020-07-22,0,102
2020-07-23,1,110
2020-07-24,0,93
2020-07-25,1,80
2020-07-26,0,105
2020-07-27,0,112
2020-07-28,1,98
2020-07-29,1,108
2020-07-30,1,111
2020-07-31,1,85
2020-08-01,1,91
2020-08-02,2,83
2020-08-03,3,116
2020-08-04,1,100
2020-08-05,1,107
2020-08-06,0,109
2020-08-07,1,93
2020-08-08,1,89
2020-08-09,0,86
2020-08-10,0,111
2020-08-11,1,107
2020-08-12,0,98
2020-08-13,2,97
2020-08-14,1,85
2020-08-15,1,82
2020-08-16,2,79
2020-08-17,3,105
2020-08-18,4,98
2020-08-19,3,106
2020-08-20,0,86
2020-08-21,0,91
2020-08-22,1,88
2020-08-23,2,93
2020-08-24,1,100
2020-08-25,1,96
2020-08-26,1,94
2020-08-27,2,95
2020-08-28,0,97
2020-08-29,2,89
2020-08-30,1,83
2020-08-31,2,99
2020-09-01,2,108
2020-09-02,3,102
2020-09-03,4,107
2020-09-04,2,88
2020-09-05,3,74
2020-09-06,2,82
2020-09-07,0,93
2020-09-08,0,100
2020-09-09,1,98
2020-09-10,1,96
2020-09-11,2,88
2020-09-12,0,85
2020-09-13,1,83
2020-09-14,1,96
2020-09-15,1,90
2020-09-16,0,90
2020-09-17,1,91
2020-09-18,3,87
2020-09-19,4,82
2020-09-20,4,78
2020-09-21,2,103
2020-09-22,1,95
2020-09-23,0,95
2020-09-24,2,97
2020-09-25,1,92
2020-09-26,3,81
2020-09-27,0,81
2020-09-28,4,89
2020-09-29,3,95
2020-09-30,1,96
2020-10-01,1,93
2020-10-02,0,92
2020-10-03,0,82
2020-10-04,1,78
2020-10-05,3,95
2020-10-06,1,97
2020-10-07,0,90
2020-10-08,3,73
2020-10-09,0,85
2020-10-10,6,71
2020-10-11,4,67
2020-10-12,1,87
2020-10-13,1,104
2020-10-14,3,81
2020-10-15,1,89
2020-10-16,2,82
2020-10-17,3,77
2020-10-18,2,65
2020-10-19,2,94
2020-10-20,6,83
2020-10-21,4,81
2020-10-22,2,84
2020-10-23,5,101
2020-10-24,0,80
2020-10-25,2,80
2020-10-26,2,87
2020-10-27,3,90
2020-10-28,4,90
2020-10-29,5,87
2020-10-30,3,89
2020-10-31,3,85
2020-11-01,3,81
2020-11-02,3,92
2020-11-03,2,96
2020-11-04,10,97
2020-11-05,10,89
2020-11-06,2,83
2020-11-07,6,91
2020-11-08,11,90
2020-11-09,5,105
2020-11-10,3,102
2020-11-11,1,91
2020-11-12,5,103
2020-11-13,5,84
2020-11-14,3,95
2020-11-15,1,89
2020-11-16,1,110
2020-11-17,2,94
2020-11-18,3,106
2020-11-19,2,101
2020-11-20,3,92
2020-11-21,6,87
2020-11-22,4,81
2020-11-23,1,107
2020-11-24,3,108
2020-11-25,3,103
2020-11-26,2,99
2020-11-27,1,98
2020-11-28,1,69
2020-11-29,3,103
2020-11-30,3,98
2020-12-01,3,106
2020-12-02,3,119
2020-12-03,0,97
2020-12-04,4,106
2020-12-05,1,89
2020-12-06,0,100
2020-12-07,1,104
2020-12-08,2,94
2020-12-09,0,90
2020-12-10,4,108
2020-12-11,5,100
2020-12-12,2,89
2020-12-13,0,94
2020-12-14,1,104
2020-12-15,0,100
2020-12-16,4,109
2020-12-17,5,98
2020-12-18,2,98
2020-12-19,2,91
2020-12-20,3,86
2020-12-21,2,109
2020-12-22,5,99
2020-12-23,0,96
2020-12-24,1,87
2020-12-25,3,71
2020-12-26,3,79
2020-12-27,4,85
2020-12-28,2,85
2020-12-29,3,92
2020-12-30,1,91
2020-12-31,3,69
2021-01-01,0,72
2021-01-02,3,80
2021-01-03,1,79
2021-01-04,1,93
2021-01-05,0,93
2021-01-06,3,87
2021-01-07,0,97
2021-01-08,0,95
2021-01-09,2,76
2021-01-10,3,79
2021-01-11,0,104
2021-01-12,2,98
2021-01-13,0,89
2021-01-14,2,93
2021-01-15,0,100
2021-01-16,2,74
2021-01-17,8,77
2021-01-18,0,108
2021-01-19,0,96
2021-01-20,2,99
2021-01-21,0,95
2021-01-22,0,93
2021-01-23,1,78
2021-01-24,4,77
2021-01-25,1,107
2021-01-26,2,101
2021-01-27,0,82
2021-01-28,2,104
2021-01-29,2,89
2021-01-30,0,68
2021-01-31,2,86
2021-02-01,0,93
2021-02-02,3,84
2021-02-03,5,98
2021-02-04,2,88
2021-02-05,1,94
2021-02-06,1,82
2021-02-07,1,90
2021-02-08,1,87
2021-02-09,1,73
2021-02-10,2,81
2021-02-11,1,71
2021-02-12,2,81
2021-02-13,1,60
2021-02-14,3,61
2021-02-15,1,95
2021-02-16,0,98
2021-02-17,0,100
2021-02-18,0,90
2021-02-19,0,90
2021-02-20,3,69
2021-02-21,0,78
2021-02-22,1,90
2021-02-23,1,83
2021-02-24,1,75
2021-02-25,2,94
2021-02-26,1,92
2021-02-27,3,80
2021-02-28,0,97
2021-03-01,2,118
2021-03-02,2,110
2021-03-03,0,97
2021-03-04,0,115
2021-03-05,0,91
2021-03-06,1,101
2021-03-07,2,93
2021-03-08,2,87
2021-03-09,0,76
2021-03-10,1,82
2021-03-11,0,62
2021-03-12,2,74
2021-03-13,2,60
2021-03-14,1,66
2021-03-15,2,73